Home   Weather   Lakewood   Past weeks

Flag for USA Past Weather in Lakewood, Colorado, USA — Yesterday and Last 2 Weeks

Now
76 °F

Scattered clouds.


Feels Like: 77 °F
Forecast: 50 / 75 °F
Wind: 8 mph from Southeast

Location: Centennial Airport

Current Time: Oct 1, 2016 at 2:44:25 PM

Latest Report: Oct 1, 2016 at 1:53 PM


Visibility: 10 mi

Pressure: 29.93 "Hg (24.67 "Hg at 1683m altitude)

Humidity: 25%

Dew Point: 38 °F

Location of LakewoodLocation

Past Weather in Lakewood — Graph

°F

Lakewood Temperature Yesterday

Maximum temperature yesterday: 72 °F (at 3:53 PM)
Minimum temperature yesterday: 54 °F (at 1:53 AM)
Average temperature yesterday: 62 °F

High & Low Weather Summary for the Past Weeks

 TemperatureHumidityPressure
High87 °F (Sep 19, 4:53 PM)86% (Sep 22, 9:53 AM)30.42 "Hg (Sep 22, 9:53 AM)
Low42 °F (Sep 25, 5:53 AM)10% (Sep 19, 4:53 PM)29.49 "Hg (Sep 23, 4:53 PM)
Average64 °F37%30.03 "Hg
* Reported Sep 16 12:53 PM — Oct 1 12:53 PM, Lakewood, Weather by CustomWeather, © 2016

Note: Actual official high and low records may vary slightly from our data, if they occured in-between our weather recording intervals... More about our weather records

Advertising

Lakewood Weather History for the Previous 24 Hours

Scroll right to see more
 ConditionsComfort  
Time TempWeatherWind HumidityBarometerVisibility
12:53 PM
Sat, Oct 1
75 °FPassing clouds.7 mph26%29.96 "Hg10 mi
11:53 AM73 °FPassing clouds.6 mph30%30.00 "Hg10 mi
10:53 AM70 °FPassing clouds.3 mph34%30.03 "Hg10 mi
9:53 AM66 °FPassing clouds.6 mph37%30.03 "Hg10 mi
8:53 AM62 °FPassing clouds.8 mph48%30.04 "Hg10 mi
7:53 AM53 °FPassing clouds.No wind69%30.06 "Hg10 mi
6:53 AM49 °FPassing clouds.6 mph74%30.05 "Hg10 mi
5:53 AM53 °FPassing clouds.6 mph66%30.04 "Hg10 mi
4:53 AM54 °FPassing clouds.9 mph67%30.02 "Hg10 mi
3:53 AM49 °FPassing clouds.5 mph77%30.03 "Hg10 mi
2:53 AM50 °FPassing clouds.7 mph77%30.04 "Hg10 mi
1:53 AM52 °FPassing clouds.3 mph75%30.04 "Hg10 mi
12:53 AM53 °FPassing clouds.8 mph72%30.06 "Hg10 mi
11:53 PM
Fri, Sep 30
54 °FPassing clouds.8 mph74%30.07 "Hg10 mi
10:53 PM54 °FPassing clouds.5 mph72%30.07 "Hg10 mi
9:53 PM57 °FPassing clouds.6 mph67%30.08 "Hg10 mi
8:53 PM59 °FPassing clouds.12 mph64%30.07 "Hg10 mi
7:53 PM62 °FPassing clouds.12 mph54%30.06 "Hg10 mi
6:53 PM67 °FPassing clouds.9 mph41%30.06 "Hg10 mi
5:53 PM67 °FBroken clouds.6 mph41%30.06 "Hg10 mi
4:53 PM70 °FPartly sunny.8 mph37%30.04 "Hg10 mi
3:53 PM72 °FBroken clouds.6 mph35%30.03 "Hg10 mi
2:53 PM70 °FPartly sunny.12 mph39%30.06 "Hg10 mi
Weather by CustomWeather, © 2016

See weather overviewHow to use our weather pages